Location: The Saddle
(36.8333°N, 80.3417°W)
Time: 20:20:57
(UTC-04:00)

ZACube-1 - Pass Details

Date: 30 March 2023
Orbit: 576 x 651 km, 97.7° (Epoch: 04 June)

Event Time Altitude Azimuth Distance (km) Brightness Sun altitude
Rises 05:39:49 0° 355° (N) 2,858 ? -18.5°
Reaches altitude 10° 05:42:28 10° 338° (NNW) 1,936 ? -18.0°
Enters shadow 05:44:43 19° 307° (NW) 1,438 ? -17.6°
